Wind_Speed
9 9 9 9 9 9 8 8 8 9 8 8 8 8 8 8 8 8 8 8 8 8 9 9 10 10 10 10 11 11 10 10 11 11 11 12 12 12 13 13 13 13 13 13
10 10 10 10 9 9 9 9 9 10 10 9 9 8 8 9 9 10 9 9 9 9 10 10 10 10 11 11 11 11 12 12 12 12 12 12 12 12 13 13 13 13 13 13
10 10 10 10 10 10 10 10 10 11 11 10 10 9 9 9 9 10 10 11 11 11 11 11 11 11 12 12 12 12 12 12 13 13 14 14 13 13 13 13 13 13 13 13
10 10 11 11 10 10 10 10 11 11 11 10 10 9 10 10 10 10 11 11 12 12 12 12 12 12 13 13 14 14 14 14 14 15 15 15 15 14 13 13 13 13 13 13
10 11 11 11 10 11 10 11 11 11 11 11 11 11 10 11 11 12 12 13 13 13 13 13 13 14 14 15 15 15 16 16 16 16 16 15 15 15 14 14 14 14 14 14
12 12 13 12 11 12 12 12 13 13 13 12 12 13 11 12 12 12 13 13 13 14 14 14 15 15 15 15 16 16 16 17 17 17 17 16 16 16 15 15 15 15 15 15
13 13 13 13 12 13 13 13 14 14 14 13 13 14 12 13 13 13 14 14 14 15 15 16 16 16 16 16 17 17 17 17 18 18 17 17 17 17 17 16 16 16 16 16
13 13 14 13 14 14 14 15 15 16 15 14 15 14 12 13 14 14 15 15 15 15 16 16 17 17 17 18 18 18 18 18 18 18 18 17 18 18 18 18 17 17 17 16
13 13 14 14 14 15 15 15 15 16 16 16 15 14 13 13 14 15 15 16 16 16 17 17 18 18 18 18 18 19 19 19 19 19 18 18 18 18 18 18 18 17 18 17
15 14 14 15 15 15 15 15 16 17 17 17 15 14 13 14 15 15 16 16 17 18 18 18 19 19 19 19 19 20 20 20 20 20 19 19 19 19 18 18 18 18 19 18
16 16 15 16 16 15 16 16 17 18 19 19 18 15 15 15 16 17 18 18 18 18 19 19 20 20 20 20 20 20 20 21 21 21 21 20 19 19 19 19 19 19 19 19
16 16 16 16 16 17 17 18 19 20 20 20 20 18 17 17 17 18 19 20 20 20 20 20 20 20 20 20 20 20 21 21 22 21 21 20 19 19 20 20 20 20 20 20
17 17 17 17 18 18 19 19 20 21 21 21 21 20 19 19 19 19 20 20 20 21 21 22 21 21 21 21 21 21 22 22 22 22 21 21 21 21 20 20 20 21 21 20
18 18 19 19 19 19 20 21 21 22 22 22 22 20 19 20 20 21 21 21 21 21 22 22 22 22 21 21 22 22 22 23 23 22 21 21 21 21 21 21 22 21 21 21
19 19 20 20 20 21 21 22 22 22 23 23 22 21 20 21 22 22 23 22 22 22 22 23 23 23 23 23 23 23 23 23 23 23 22 22 22 23 23 23 23 23 23 22
21 21 21 21 21 22 22 22 22 23 24 24 24 22 22 22 23 23 23 23 23 23 24 24 24 23 24 24 24 24 23 24 24 24 24 24 24 24 25 24 25 24 24 24
21 21 22 22 22 23 23 22 23 23 24 25 24 23 23 23 23 24 24 24 24 24 24 24 24 24 24 24 24 24 24 24 25 25 25 25 25 25 26 26 26 26 25 25
22 23 23 23 23 24 23 23 23 23 24 24 24 24 24 24 24 24 24 25 25 24 24 24 24 25 25 25 25 25 25 26 26 27 27 27 26 26 26 26 27 26 26 26
23 24 24 24 25 25 24 23 24 24 24 25 25 25 25 25 24 24 24 25 25 25 25 25 26 26 27 27 27 27 27 27 27 28 28 28 27 27 27 27 27 27 27 27
24 24 25 26 26 25 24 24 25 25 25 25 26 26 25 25 25 24 25 26 27 27 26 27 27 28 28 28 28 28 28 28 28 29 29 29 28 28 28 28 29 29 28 28
26 25 26 26 27 26 25 25 25 26 26 26 27 27 26 26 26 26 27 27 28 28 28 29 29 29 29 29 29 29 29 29 29 30 30 30 30 30 30 29 30 29 28 28
26 27 27 26 26 26 25 26 26 26 26 27 27 27 27 27 27 27 28 28 29 29 30 30 30 31 31 31 31 31 30 30 30 30 31 31 31 31 31 30 30 30 29 29
26 27 27 27 26 26 26 27 27 28 28 28 28 27 28 28 28 28 28 29 30 30 31 31 32 32 32 32 32 32 32 32 32 32 31 31 31 32 32 31 31 30 30 29
25 26 27 28 28 28 28 29 29 29 29 29 29 29 29 30 30 30 30 30 31 32 32 33 34 34 34 34 34 33 33 33 34 33 32 32 32 32 32 31 31 31 30 30
26 26 27 27 28 29 29 30 30 31 31 31 31 31 31 31 31 32 32 33 33 33 34 34 34 34 35 35 35 34 34 34 34 34 34 33 33 33 33 32 31 32 32 32
28 28 28 28 28 29 29 30 31 31 32 33 33 33 33 33 33 34 34 34 34 34 35 35 36 36 35 36 35 35 35 34 34 34 34 33 32 32 32 32 32 32 32 32
Wind_Direction
261 259 259 259 258 261 265 267 269 272 272 274 278 282 281 280 279 282 286 289 290 291 292 291 288 288 289 287 286 286 290 295 295 295 298 300 301 300 297 294 293 294 294 294
259 260 260 260 260 262 264 265 269 272 271 270 272 275 275 278 277 279 283 284 286 289 291 292 290 288 289 288 286 287 289 292 292 292 294 297 300 300 297 294 293 293 294 294
259 258 260 262 266 264 264 267 269 269 270 269 269 270 274 278 280 280 280 282 283 286 290 291 290 288 288 287 286 289 289 291 293 294 294 295 296 296 296 296 294 293 294 294
259 260 260 261 264 265 265 268 268 268 267 270 272 271 271 275 279 279 280 282 282 285 289 291 290 289 287 287 288 289 291 292 293 295 295 296 295 293 292 294 294 291 290 290
259 259 259 260 264 266 267 269 270 270 270 271 274 274 274 276 277 281 284 282 281 285 290 292 291 289 287 287 288 290 290 291 291 291 294 294 294 293 291 293 293 291 289 289
256 257 258 258 261 265 267 268 269 270 272 273 275 276 277 280 284 286 284 282 282 284 287 289 290 289 287 288 288 288 290 290 289 288 290 291 291 292 291 292 292 290 289 288
255 254 257 258 260 262 265 268 270 272 275 279 278 277 279 281 283 284 283 284 285 286 286 288 289 289 289 289 289 288 289 289 288 287 290 290 289 290 289 289 290 288 287 287
256 253 255 256 258 263 265 269 272 276 278 281 280 280 281 282 283 283 284 286 287 286 287 288 289 289 290 289 288 287 288 288 289 288 289 289 288 288 287 285 286 286 285 285
260 257 257 258 259 261 264 267 272 276 278 280 283 284 282 282 283 283 285 286 287 287 287 288 289 289 290 290 288 287 285 286 287 287 288 287 288 287 285 283 284 284 284 285
264 261 257 258 259 261 264 267 270 273 279 282 285 286 285 283 284 285 286 286 287 287 287 288 289 290 290 290 289 287 286 285 285 285 285 285 286 286 284 282 282 283 283 283
264 264 260 259 260 264 265 267 270 273 277 282 285 287 289 287 287 286 287 287 287 287 286 287 287 289 290 290 288 287 285 285 285 285 285 285 284 283 283 285 284 284 280 279
264 264 260 259 262 263 265 269 273 276 278 282 286 289 290 288 288 287 287 288 289 288 287 288 288 289 289 288 290 289 287 285 284 285 285 284 283 284 284 285 283 283 280 278
261 262 261 259 262 264 266 268 273 276 278 281 284 289 289 287 288 288 288 288 288 288 288 289 290 289 288 289 290 290 288 287 285 286 287 285 284 284 283 284 285 282 279 278
262 262 264 265 267 269 270 271 273 275 278 281 284 287 286 285 285 286 286 287 287 288 288 289 290 290 290 290 291 291 290 289 287 286 287 286 285 283 282 283 285 284 281 278
263 264 266 267 269 271 273 274 276 277 279 280 283 284 284 283 283 283 285 287 286 287 288 289 289 290 291 290 291 291 291 290 288 285 287 287 286 285 284 284 285 284 281 279
264 266 268 269 270 271 271 275 276 276 278 280 281 282 281 280 281 283 285 287 287 287 288 288 288 289 290 290 289 289 290 289 289 286 287 287 285 285 284 283 284 283 282 280
263 267 269 270 271 273 273 275 275 276 278 279 280 281 281 281 283 285 285 286 287 287 288 289 288 288 289 289 290 290 290 290 289 288 285 286 285 284 283 283 284 283 282 280
263 266 269 271 272 274 277 275 276 278 278 278 280 282 282 282 283 283 284 285 286 286 287 288 288 288 288 289 290 289 289 290 290 290 288 286 285 283 282 283 282 282 281 280
262 266 269 271 273 276 278 279 279 278 278 279 281 283 283 283 282 282 284 284 284 284 286 287 288 288 289 290 291 290 288 289 289 290 290 288 285 283 281 282 282 281 281 279
262 265 268 271 274 277 278 278 279 278 278 280 282 283 283 283 282 282 283 283 284 284 286 287 288 289 290 290 290 290 289 289 289 289 289 288 286 284 282 282 283 282 280 278
263 266 269 271 273 276 278 279 279 279 281 281 283 284 284 283 283 282 281 282 283 283 284 286 286 288 290 290 289 290 290 290 289 289 288 287 287 284 283 282 282 282 280 278
265 267 269 272 273 275 277 277 278 280 280 281 282 282 282 282 281 281 283 284 283 282 282 284 286 287 288 290 290 289 290 289 289 289 288 286 285 284 282 282 282 280 279 278
267 268 270 271 273 275 276 277 278 279 279 280 281 281 282 281 281 283 284 284 284 282 283 284 285 287 288 289 290 289 288 288 288 287 287 286 285 285 283 281 280 279 277 277
268 269 270 271 272 274 275 276 275 276 277 279 280 281 281 282 282 284 283 283 283 284 284 285 287 288 289 289 289 288 287 287 287 287 286 286 285 285 282 280 279 278 277 276
270 271 272 272 273 274 275 276 275 276 277 278 279 280 281 282 282 283 284 284 284 284 285 285 287 289 289 289 288 287 287 287 286 287 286 285 285 284 283 280 278 277 277 276
270 271 272 273 275 275 275 275 277 277 278 279 280 280 281 282 283 283 284 284 284 284 285 286 287 288 289 289 288 288 287 287 287 287 286 286 285 284 283 279 278 277 277 276
Height
5862 5863 5863 5864 5864 5865 5865 5866 5866 5866 5866 5866 5866 5866 5866 5866 5865 5865 5865 5864 5863 5863 5862 5861 5860 5859 5859 5858 5857 5856 5855 5854 5853 5852 5851 5850 5849 5847 5846 5845 5844 5843 5841 5840
5861 5861 5862 5862 5862 5863 5863 5864 5864 5864 5864 5865 5865 5865 5864 5864 5863 5863 5862 5862 5861 5860 5859 5858 5858 5857 5856 5855 5854 5853 5852 5852 5851 5850 5848 5847 5846 5845 5843 5842 5841 5839 5838 5837
5858 5860 5859 5860 5861 5861 5861 5862 5862 5862 5862 5862 5863 5863 5863 5862 5861 5860 5860 5859 5859 5858 5857 5856 5855 5854 5853 5853 5852 5851 5849 5849 5848 5847 5846 5844 5843 5841 5840 5839 5838 5837 5835 5834
5856 5857 5857 5858 5858 5859 5859 5859 5859 5859 5860 5860 5861 5861 5861 5859 5859 5858 5857 5856 5856 5855 5854 5853 5852 5851 5850 5849 5849 5847 5846 5845 5845 5844 5842 5841 5839 5838 5837 5836 5835 5834 5832 5831
5854 5854 5855 5855 5856 5856 5856 5857 5857 5857 5857 5858 5858 5858 5859 5857 5856 5855 5854 5854 5853 5852 5851 5850 5849 5848 5847 5846 5845 5844 5843 5842 5841 5840 5838 5837 5836 5834 5833 5832 5831 5830 5829 5828
5851 5852 5852 5853 5853 5853 5854 5854 5854 5854 5854 5855 5855 5855 5856 5854 5853 5853 5852 5850 5849 5849 5848 5846 5845 5844 5843 5842 5841 5840 5839 5838 5836 5835 5834 5833 5832 5830 5829 5828 5827 5826 5825 5824
5849 5849 5850 5850 5851 5851 5851 5852 5852 5851 5851 5852 5852 5851 5853 5851 5850 5849 5848 5847 5846 5845 5844 5843 5842 5840 5839 5838 5836 5835 5834 5833 5832 5831 5830 5829 5827 5826 5825 5824 5823 5822 5821 5820
5845 5846 5847 5847 5848 5848 5848 5849 5849 5849 5849 5849 5848 5848 5850 5848 5846 5845 5844 5844 5842 5841 5840 5839 5837 5836 5835 5833 5832 5831 5829 5828 5827 5826 5825 5824 5823 5821 5820 5820 5819 5818 5817 5816
5842 5843 5844 5844 5844 5845 5845 5845 5846 5845 5844 5844 5844 5845 5845 5844 5843 5842 5841 5839 5838 5837 5835 5834 5833 5831 5830 5828 5827 5826 5824 5823 5822 5821 5820 5819 5818 5816 5815 5815 5814 5813 5812 5811
5838 5839 5840 5840 5841 5841 5842 5841 5842 5841 5840 5840 5841 5841 5841 5840 5839 5838 5836 5835 5834 5832 5831 5829 5827 5826 5825 5823 5822 5820 5819 5817 5816 5815 5814 5813 5813 5812 5811 5810 5808 5807 5806 5806
5834 5836 5837 5837 5837 5837 5838 5838 5837 5837 5837 5836 5836 5839 5837 5835 5834 5833 5832 5830 5829 5827 5826 5824 5822 5821 5819 5818 5816 5814 5813 5812 5810 5809 5808 5808 5807 5807 5806 5805 5803 5802 5801 5800
5830 5831 5832 5833 5833 5833 5833 5833 5833 5833 5833 5832 5831 5835 5832 5831 5829 5828 5826 5825 5824 5822 5820 5818 5817 5815 5813 5812 5810 5809 5807 5806 5805 5804 5803 5802 5801 5800 5800 5799 5798 5797 5796 5795
5826 5827 5827 5828 5830 5830 5829 5829 5828 5828 5828 5827 5827 5830 5827 5826 5824 5822 5821 5820 5818 5817 5815 5813 5811 5809 5808 5806 5804 5803 5801 5800 5799 5798 5797 5796 5795 5794 5793 5792 5792 5791 5790 5789
5821 5822 5823 5824 5824 5824 5824 5824 5824 5823 5822 5822 5822 5822 5822 5820 5818 5817 5816 5814 5813 5811 5809 5807 5805 5804 5802 5800 5798 5796 5795 5794 5793 5792 5791 5790 5789 5788 5787 5786 5785 5784 5783 5782
5816 5817 5817 5818 5818 5818 5819 5818 5818 5817 5817 5816 5816 5816 5816 5814 5813 5811 5810 5808 5807 5805 5803 5801 5799 5797 5796 5794 5792 5790 5789 5787 5786 5785 5784 5783 5782 5781 5780 5779 5778 5777 5776 5776
5811 5812 5812 5813 5813 5812 5813 5813 5812 5812 5811 5810 5810 5810 5809 5807 5806 5805 5804 5802 5801 5799 5797 5795 5793 5791 5789 5787 5786 5784 5782 5781 5780 5778 5777 5776 5776 5774 5773 5772 5771 5770 5769 5768
5805 5806 5806 5807 5807 5806 5807 5808 5807 5806 5805 5804 5803 5804 5802 5801 5800 5799 5797 5796 5794 5793 5791 5789 5787 5785 5783 5781 5780 5778 5776 5775 5773 5772 5770 5769 5768 5767 5766 5764 5763 5762 5761 5761
5800 5800 5800 5800 5801 5801 5804 5801 5801 5800 5799 5798 5797 5797 5796 5795 5793 5792 5791 5789 5787 5786 5785 5782 5780 5779 5777 5775 5773 5771 5770 5768 5766 5764 5763 5761 5760 5759 5758 5757 5756 5754 5754 5753
5794 5794 5794 5794 5794 5794 5796 5795 5794 5793 5793 5792 5791 5790 5789 5788 5787 5785 5784 5782 5781 5779 5778 5776 5774 5772 5770 5768 5766 5764 5763 5761 5759 5757 5755 5754 5752 5751 5750 5749 5747 5746 5745 5745
5787 5787 5788 5787 5787 5788 5790 5788 5787 5787 5786 5786 5784 5783 5782 5780 5780 5779 5777 5775 5774 5772 5771 5769 5767 5765 5763 5761 5759 5757 5755 5753 5751 5749 5747 5746 5744 5742 5741 5740 5739 5738 5736 5736
5780 5780 5781 5780 5780 5781 5782 5781 5780 5781 5781 5778 5777 5775 5774 5773 5772 5771 5769 5768 5766 5764 5763 5761 5759 5757 5755 5753 5751 5749 5747 5745 5743 5741 5739 5737 5735 5734 5733 5731 5730 5729 5727 5727
5773 5773 5773 5773 5773 5776 5774 5773 5773 5773 5771 5770 5769 5767 5766 5765 5764 5762 5761 5759 5758 5756 5755 5753 5751 5749 5747 5745 5743 5741 5739 5736 5734 5732 5730 5728 5727 5725 5723 5722 5721 5720 5719 5718
5766 5767 5766 5767 5768 5767 5766 5765 5765 5764 5763 5762 5761 5760 5758 5757 5756 5755 5753 5751 5750 5748 5746 5744 5743 5740 5738 5736 5734 5732 5729 5727 5725 5723 5721 5719 5717 5715 5714 5712 5711 5710 5709 5709
5758 5758 5758 5758 5759 5759 5758 5757 5756 5756 5755 5754 5753 5752 5750 5749 5748 5746 5745 5743 5741 5739 5737 5735 5733 5731 5729 5727 5724 5722 5720 5718 5716 5714 5711 5709 5707 5706 5704 5703 5702 5701 5700 5699
5751 5750 5750 5750 5751 5750 5750 5749 5748 5748 5747 5745 5744 5743 5742 5740 5739 5737 5736 5734 5732 5730 5728 5726 5724 5722 5719 5717 5714 5712 5710 5708 5706 5703 5701 5699 5697 5695 5694 5693 5692 5691 5691 5690
5743 5743 5742 5742 5742 5741 5741 5740 5740 5739 5738 5737 5736 5734 5733 5731 5730 5728 5726 5724 5722 5720 5718 5716 5714 5712 5709 5707 5704 5702 5700 5697 5695 5693 5691 5689 5687 5685 5684 5683 5682 5681 5680 5680